Time,TemperatureF,DewpointF,PressureIn,WindDirection,WindDirectionDegrees,WindSpeedMPH,WindSpeedGustMPH,Humidity,HourlyPrecipIn,Conditions,Clouds,dailyrainin,SoftwareType,DateUTC
2013-03-28 00:00:00,38.9,28.5,29.91,NNW,342,3.5,0.0,66,0.00,CLR,CLR,0.01,WeatherDisplay:10.36,2013-03-28 04:00:00,
2013-03-28 00:05:00,38.8,28.8,29.91,NNW,342,0.0,0.0,67,0.00,CLR,CLR,0.00,WeatherDisplay:10.36,2013-03-28 04:05:00,
2013-03-28 00:10:00,38.6,28.6,29.91,NNW,342,0.0,0.0,67,0.00,CLR,CLR,0.00,WeatherDisplay:10.36,2013-03-28 04:10:00,
2013-03-28 00:16:00,38.5,28.9,29.91,NNW,342,2.3,2.3,68,0.00,CLR,CLR,0.00,WeatherDisplay:10.36,2013-03-28 04:16:00,
2013-03-28 00:21:00,38.3,28.7,29.91,NW,304,3.5,3.5,68,0.00,CLR,CLR,0.00,WeatherDisplay:10.36,2013-03-28 04:21:00,
2013-03-28 00:26:00,38.3,28.7,29.91,NW,305,2.3,2.3,68,0.00,CLR,CLR,0.00,WeatherDisplay:10.36,2013-03-28 04:26:00,
2013-03-28 00:31:00,38.3,28.7,29.91,NW,309,3.5,3.5,68,0.00,CLR,CLR,0.00,WeatherDisplay:10.36,2013-03-28 04:31:00,
2013-03-28 00:36:00,38.2,28.6,29.91,NW,308,3.5,3.5,68,0.00,CLR,CLR,0.00,WeatherDisplay:10.36,2013-03-28 04:36:00,
2013-03-28 00:41:00,38.2,28.6,29.91,NW,308,0.0,0.0,68,0.00,CLR,CLR,0.00,WeatherDisplay:10.36,2013-03-28 04:41:00,
2013-03-28 00:46:00,38.0,28.4,29.91,NW,308,2.3,2.3,68,0.00,CLR,CLR,0.00,WeatherDisplay:10.36,2013-03-28 04:46:00,
2013-03-28 00:51:00,38.0,28.7,29.91,WSW,237,3.5,3.5,69,0.00,CLR,CLR,0.00,WeatherDisplay:10.36,2013-03-28 04:51:00,
2013-03-28 00:56:00,38.0,28.4,29.91,NW,320,1.2,0.0,68,0.00,CLR,CLR,0.00,WeatherDisplay:10.36,2013-03-28 04:56:00,
2013-03-28 01:01:00,38.0,28.4,29.91,NW,310,1.2,0.0,68,0.00,CLR,CLR,0.00,WeatherDisplay:10.36,2013-03-28 05:01:00,
2013-03-28 01:06:00,37.9,28.3,29.91,NW,312,2.3,0.0,68,0.00,CLR,CLR,0.00,WeatherDisplay:10.36,2013-03-28 05:06:00,
2013-03-28 01:11:00,37.8,28.2,29.91,North,350,1.2,1.2,68,0.00,CLR,CLR,0.00,WeatherDisplay:10.36,2013-03-28 05:11:00,
2013-03-28 01:17:00,37.8,28.5,29.91,NNW,348,2.3,2.3,69,0.00,CLR,CLR,0.00,WeatherDisplay:10.36,2013-03-28 05:17:00,
2013-03-28 01:22:00,37.6,28.0,29.91,NNW,327,0.0,0.0,68,0.00,CLR,CLR,0.00,WeatherDisplay:10.36,2013-03-28 05:22:00,
2013-03-28 01:27:00,37.6,28.3,29.90,NNW,329,3.5,3.5,69,0.00,CLR,CLR,0.00,WeatherDisplay:10.36,2013-03-28 05:27:00,
2013-03-28 01:32:00,37.5,28.2,29.90,NW,325,1.2,0.0,69,0.00,CLR,CLR,0.00,WeatherDisplay:10.36,2013-03-28 05:32:00,
2013-03-28 01:37:00,37.3,28.1,29.90,NW,325,0.0,0.0,69,0.00,CLR,CLR,0.00,WeatherDisplay:10.36,2013-03-28 05:37:00,
2013-03-28 01:42:00,37.3,28.1,29.90,SW,226,1.2,0.0,69,0.00,CLR,CLR,0.00,WeatherDisplay:10.36,2013-03-28 05:42:00,
2013-03-28 02:01:00,37.2,28.0,29.90,NW,312,0.0,0.0,69,0.00,CLR,CLR,0.00,WeatherDisplay:10.36,2013-03-28 06:01:00,
2013-03-28 02:07:00,37.2,28.0,29.90,NW,318,2.3,2.3,69,0.00,CLR,CLR,0.00,WeatherDisplay:10.36,2013-03-28 06:07:00,
2013-03-28 02:12:00,37.2,28.0,29.90,NW,319,2.3,2.3,69,0.00,CLR,CLR,0.00,WeatherDisplay:10.36,2013-03-28 06:12:00,
2013-03-28 02:17:00,37.2,28.0,29.90,NW,319,0.0,0.0,69,0.00,CLR,CLR,0.00,WeatherDisplay:10.36,2013-03-28 06:17:00,
2013-03-28 02:22:00,37.3,28.1,29.90,NW,319,1.2,0.0,69,0.00,CLR,CLR,0.00,WeatherDisplay:10.36,2013-03-28 06:22:00,
2013-03-28 02:27:00,37.3,28.1,29.90,NW,319,0.0,0.0,69,0.00,CLR,CLR,0.00,WeatherDisplay:10.36,2013-03-28 06:27:00,
2013-03-28 02:32:00,37.2,28.0,29.89,NW,319,1.0,1.0,69,0.00,CLR,CLR,0.00,WeatherDisplay:10.36,2013-03-28 06:32:00,
2013-03-28 02:37:00,37.2,28.0,29.89,WNW,295,0.0,0.0,69,0.00,CLR,CLR,0.00,WeatherDisplay:10.36,2013-03-28 06:37:00,
2013-03-28 02:43:00,37.2,28.0,29.89,WNW,295,0.0,0.0,69,0.00,CLR,CLR,0.00,WeatherDisplay:10.36,2013-03-28 06:43:00,
2013-03-28 02:48:00,37.0,27.8,29.89,West,274,0.0,0.0,69,0.00,CLR,CLR,0.00,WeatherDisplay:10.36,2013-03-28 06:48:00,
2013-03-28 02:53:00,37.0,27.8,29.89,West,278,4.6,4.6,69,0.00,CLR,CLR,0.00,WeatherDisplay:10.36,2013-03-28 06:53:00,
2013-03-28 02:58:00,37.0,27.8,29.89,SSE,148,2.3,2.3,69,0.00,CLR,CLR,0.00,WeatherDisplay:10.36,2013-03-28 06:58:00,
2013-03-28 03:03:00,37.0,27.8,29.89,SSE,154,1.2,0.0,69,0.00,CLR,CLR,0.00,WeatherDisplay:10.36,2013-03-28 07:03:00,
2013-03-28 03:08:00,37.2,27.6,29.89,NW,326,3.5,3.5,68,0.00,CLR,CLR,0.00,WeatherDisplay:10.36,2013-03-28 07:08:00,
2013-03-28 03:13:00,37.3,27.7,29.89,NW,326,0.0,0.0,68,0.00,CLR,CLR,0.00,WeatherDisplay:10.36,2013-03-28 07:13:00,
2013-03-28 03:18:00,37.3,27.7,29.89,NW,322,2.3,0.0,68,0.00,CLR,CLR,0.00,WeatherDisplay:10.36,2013-03-28 07:18:00,
2013-03-28 03:23:00,37.3,27.7,29.89,WNW,290,2.3,2.3,68,0.00,CLR,CLR,0.00,WeatherDisplay:10.36,2013-03-28 07:23:00,
2013-03-28 03:28:00,37.2,27.6,29.89,WNW,298,3.5,3.5,68,0.00,CLR,CLR,0.00,WeatherDisplay:10.36,2013-03-28 07:28:00,
2013-03-28 03:34:00,37.2,27.6,29.88,WNW,298,3.5,3.5,68,0.00,CLR,CLR,0.00,WeatherDisplay:10.36,2013-03-28 07:34:00,
2013-03-28 03:39:00,37.2,27.6,29.88,NW,306,2.3,2.3,68,0.00,CLR,CLR,0.00,WeatherDisplay:10.36,2013-03-28 07:39:00,
2013-03-28 03:44:00,37.2,27.6,29.88,NW,307,2.0,2.0,68,0.00,CLR,CLR,0.00,WeatherDisplay:10.36,2013-03-28 07:44:00,
2013-03-28 03:49:00,37.0,27.4,29.88,NW,307,0.0,0.0,68,0.00,CLR,CLR,0.00,WeatherDisplay:10.36,2013-03-28 07:49:00,
2013-03-28 03:54:00,37.0,27.4,29.88,West,260,0.0,0.0,68,0.00,CLR,CLR,0.00,WeatherDisplay:10.36,2013-03-28 07:54:00,
2013-03-28 03:59:00,36.9,27.7,29.88,West,260,2.3,2.3,69,0.00,CLR,CLR,0.00,WeatherDisplay:10.36,2013-03-28 07:59:00,
2013-03-28 04:04:00,36.9,27.7,29.88,NW,322,4.0,4.0,69,0.00,CLR,CLR,0.00,WeatherDisplay:10.36,2013-03-28 08:04:00,
2013-03-28 04:09:00,36.9,27.7,29.88,NW,321,0.0,0.0,69,0.00,CLR,CLR,0.00,WeatherDisplay:10.36,2013-03-28 08:09:00,
2013-03-28 04:14:00,36.9,27.7,29.88,NW,321,0.0,0.0,69,0.00,CLR,CLR,0.00,WeatherDisplay:10.36,2013-03-28 08:14:00,
2013-03-28 04:19:00,36.9,28.0,29.88,NW,321,1.2,0.0,70,0.00,CLR,CLR,0.00,WeatherDisplay:10.36,2013-03-28 08:19:00,
2013-03-28 04:24:00,36.9,28.0,29.88,NW,321,0.0,0.0,70,0.00,CLR,CLR,0.00,WeatherDisplay:10.36,2013-03-28 08:24:00,
2013-03-28 04:29:00,36.8,27.9,29.88,NW,321,0.0,0.0,70,0.00,CLR,CLR,0.00,WeatherDisplay:10.36,2013-03-28 08:29:00,
2013-03-28 04:34:00,36.8,27.9,29.88,NW,317,1.2,1.2,70,0.00,CLR,CLR,0.00,WeatherDisplay:10.36,2013-03-28 08:34:00,
2013-03-28 04:39:00,36.8,27.9,29.88,WNW,300,2.0,2.0,70,0.00,CLR,CLR,0.00,WeatherDisplay:10.36,2013-03-28 08:39:00,
2013-03-28 04:44:00,36.8,27.9,29.88,SSE,157,3.5,0.0,70,0.00,CLR,CLR,0.00,WeatherDisplay:10.36,2013-03-28 08:44:00,
2013-03-28 04:49:00,36.6,27.7,29.88,SSE,157,0.0,0.0,70,0.00,CLR,CLR,0.00,WeatherDisplay:10.36,2013-03-28 08:49:00,
2013-03-28 04:54:00,36.5,27.6,29.88,SW,232,0.0,0.0,70,0.00,CLR,CLR,0.00,WeatherDisplay:10.36,2013-03-28 08:54:00,
2013-03-28 04:59:00,36.3,27.8,29.88,SW,232,0.0,0.0,71,0.00,CLR,CLR,0.00,WeatherDisplay:10.36,2013-03-28 08:59:00,
2013-03-28 05:04:00,36.2,27.7,29.88,SW,219,0.0,0.0,71,0.00,CLR,CLR,0.00,WeatherDisplay:10.36,2013-03-28 09:04:00,
2013-03-28 05:09:00,36.0,27.5,29.89,SW,219,0.0,0.0,71,0.00,CLR,CLR,0.00,WeatherDisplay:10.36,2013-03-28 09:09:00,
2013-03-28 05:15:00,35.8,27.7,29.89,SW,219,0.0,0.0,72,0.00,CLR,CLR,0.00,WeatherDisplay:10.36,2013-03-28 09:15:00,
2013-03-28 05:20:00,35.6,27.5,29.89,SW,219,0.0,0.0,72,0.00,CLR,CLR,0.00,WeatherDisplay:10.36,2013-03-28 09:20:00,
2013-03-28 05:25:00,35.5,27.7,29.89,WSW,245,0.0,0.0,73,0.00,CLR,CLR,0.00,WeatherDisplay:10.36,2013-03-28 09:25:00,
2013-03-28 05:30:00,35.5,27.7,29.89,SW,225,2.3,2.3,73,0.00,CLR,CLR,0.00,WeatherDisplay:10.36,2013-03-28 09:30:00,
2013-03-28 05:35:00,35.6,27.8,29.89,SW,224,0.0,0.0,73,0.00,CLR,CLR,0.00,WeatherDisplay:10.36,2013-03-28 09:35:00,
2013-03-28 05:40:00,35.6,27.8,29.89,SW,224,0.0,0.0,73,0.00,CLR,CLR,0.00,WeatherDisplay:10.36,2013-03-28 09:40:00,
2013-03-28 05:45:00,35.5,27.7,29.89,SW,224,0.0,0.0,73,0.00,CLR,CLR,0.00,WeatherDisplay:10.36,2013-03-28 09:45:00,
2013-03-28 05:50:00,35.6,27.8,29.89,SW,224,0.0,0.0,73,0.00,CLR,CLR,0.00,WeatherDisplay:10.36,2013-03-28 09:50:00,
2013-03-28 05:55:00,35.6,27.8,29.89,SW,224,0.0,0.0,73,0.00,CLR,CLR,0.00,WeatherDisplay:10.36,2013-03-28 09:55:00,
2013-03-28 06:01:00,35.5,27.7,29.89,SW,224,0.0,0.0,73,0.00,CLR,CLR,0.00,WeatherDisplay:10.36,2013-03-28 10:01:00,
2013-03-28 06:06:00,35.3,27.5,29.89,SW,224,0.0,0.0,73,0.00,CLR,CLR,0.00,WeatherDisplay:10.36,2013-03-28 10:06:00,
2013-03-28 06:11:00,35.2,27.4,29.89,SW,224,0.0,0.0,73,0.00,CLR,CLR,0.00,WeatherDisplay:10.36,2013-03-28 10:11:00,
2013-03-28 06:16:00,35.0,27.5,29.89,SW,224,0.0,0.0,74,0.00,CLR,CLR,0.00,WeatherDisplay:10.36,2013-03-28 10:16:00,
2013-03-28 06:22:00,34.9,27.5,29.89,SW,224,0.0,0.0,74,0.00,CLR,CLR,0.00,WeatherDisplay:10.36,2013-03-28 10:22:00,
2013-03-28 06:27:00,34.9,27.5,29.89,SW,224,1.2,0.0,74,0.00,CLR,CLR,0.00,WeatherDisplay:10.36,2013-03-28 10:27:00,
2013-03-28 06:32:00,34.9,27.5,29.89,SW,225,0.0,0.0,74,0.00,CLR,CLR,0.00,WeatherDisplay:10.36,2013-03-28 10:32:00,
2013-03-28 06:37:00,34.9,27.5,29.89,SW,224,2.3,0.0,74,0.00,CLR,CLR,0.00,WeatherDisplay:10.36,2013-03-28 10:37:00,
2013-03-28 06:42:00,35.0,27.5,29.90,SW,224,0.0,0.0,74,0.00,CLR,CLR,0.00,WeatherDisplay:10.36,2013-03-28 10:42:00,
2013-03-28 06:48:00,35.0,27.5,29.90,SW,225,2.3,2.3,74,0.00,CLR,CLR,0.00,WeatherDisplay:10.36,2013-03-28 10:48:00,
2013-03-28 06:53:00,35.3,27.5,29.90,SW,225,0.0,0.0,73,0.00,CLR,CLR,0.00,WeatherDisplay:10.36,2013-03-28 10:53:00,
2013-03-28 06:58:00,35.6,27.8,29.90,SW,225,1.2,1.2,73,0.00,CLR,CLR,0.00,WeatherDisplay:10.36,2013-03-28 10:58:00,
2013-03-28 07:03:00,35.8,27.7,29.90,SW,225,0.0,0.0,72,0.00,CLR,CLR,0.00,WeatherDisplay:10.36,2013-03-28 11:03:00,
2013-03-28 07:08:00,35.9,27.7,29.91,SW,225,0.0,0.0,72,0.00,CLR,CLR,0.00,WeatherDisplay:10.36,2013-03-28 11:08:00,
2013-03-28 07:13:00,35.8,27.7,29.91,SW,225,0.0,0.0,72,0.00,CLR,CLR,0.00,WeatherDisplay:10.36,2013-03-28 11:13:00,
2013-03-28 07:18:00,35.9,27.7,29.91,SW,225,1.2,1.2,72,0.00,CLR,CLR,0.00,WeatherDisplay:10.36,2013-03-28 11:18:00,
2013-03-28 07:23:00,35.9,27.7,29.91,SW,225,1.0,1.0,72,0.00,CLR,CLR,0.00,WeatherDisplay:10.36,2013-03-28 11:23:00,
2013-03-28 07:28:00,36.0,27.5,29.91,SW,225,0.0,0.0,71,0.00,CLR,CLR,0.00,WeatherDisplay:10.36,2013-03-28 11:28:00,
2013-03-28 07:34:00,36.3,27.8,29.91,SW,225,0.0,0.0,71,0.00,CLR,CLR,0.00,WeatherDisplay:10.36,2013-03-28 11:34:00,
2013-03-28 07:39:00,36.5,27.6,29.91,NNW,333,1.2,0.0,70,0.00,CLR,CLR,0.00,WeatherDisplay:10.36,2013-03-28 11:39:00,
2013-03-28 07:44:00,36.8,27.6,29.91,NW,325,2.3,2.3,69,0.00,CLR,CLR,0.00,WeatherDisplay:10.36,2013-03-28 11:44:00,
2013-03-28 07:49:00,37.2,27.6,29.91,NW,325,0.0,0.0,68,0.00,CLR,CLR,0.00,WeatherDisplay:10.36,2013-03-28 11:49:00,
2013-03-28 07:54:00,37.5,27.9,29.92,NW,325,2.0,2.0,68,0.00,CLR,CLR,0.00,WeatherDisplay:10.36,2013-03-28 11:54:00,
2013-03-28 07:59:00,37.6,28.0,29.92,NNW,330,2.3,2.3,68,0.00,CLR,CLR,0.00,WeatherDisplay:10.36,2013-03-28 11:59:00,
2013-03-28 08:05:00,37.9,28.3,29.92,NNW,330,1.2,0.0,68,0.00,CLR,CLR,0.00,WeatherDisplay:10.36,2013-03-28 12:05:00,
2013-03-28 08:10:00,38.0,28.0,29.92,WNW,297,2.3,0.0,67,0.00,CLR,CLR,0.00,WeatherDisplay:10.36,2013-03-28 12:10:00,
2013-03-28 08:15:00,38.3,27.9,29.92,NW,317,2.3,2.3,66,0.00,CLR,CLR,0.00,WeatherDisplay:10.36,2013-03-28 12:15:00,
2013-03-28 08:20:00,38.5,28.1,29.92,NW,317,2.0,3.0,66,0.00,CLR,CLR,0.00,WeatherDisplay:10.36,2013-03-28 12:20:00,
2013-03-28 08:25:00,38.8,28.0,29.92,NW,323,3.5,3.5,65,0.00,CLR,CLR,0.00,WeatherDisplay:10.36,2013-03-28 12:25:00,
2013-03-28 08:30:00,39.1,27.9,29.92,NW,323,3.5,3.5,64,0.00,CLR,CLR,0.00,WeatherDisplay:10.36,2013-03-28 12:30:00,
2013-03-28 08:36:00,39.3,27.7,29.92,NW,319,3.5,3.5,63,0.00,CLR,CLR,0.00,WeatherDisplay:10.36,2013-03-28 12:36:00,
2013-03-28 08:41:00,39.5,27.5,29.92,WSW,251,4.6,4.6,62,0.00,CLR,CLR,0.00,WeatherDisplay:10.36,2013-03-28 12:41:00,
2013-03-28 08:46:00,39.8,27.8,29.92,NW,324,3.5,3.5,62,0.00,CLR,CLR,0.00,WeatherDisplay:10.36,2013-03-28 12:46:00,
2013-03-28 08:51:00,40.2,27.8,29.92,WNW,285,3.5,3.5,61,0.00,CLR,CLR,0.00,WeatherDisplay:10.36,2013-03-28 12:51:00,
2013-03-28 08:57:00,40.5,28.1,29.92,NW,319,0.0,0.0,61,0.00,CLR,CLR,0.00,WeatherDisplay:10.36,2013-03-28 12:57:00,
2013-03-28 09:02:00,40.8,28.0,29.92,NW,307,2.3,2.3,60,0.00,CLR,CLR,0.00,WeatherDisplay:10.36,2013-03-28 13:02:00,
2013-03-28 09:07:00,41.1,28.3,29.92,NW,304,3.5,3.5,60,0.00,CLR,CLR,0.00,WeatherDisplay:10.36,2013-03-28 13:07:00,
2013-03-28 09:12:00,41.1,27.9,29.92,WNW,300,4.6,4.6,59,0.00,CLR,CLR,0.00,WeatherDisplay:10.36,2013-03-28 13:12:00,
2013-03-28 09:17:00,41.1,27.9,29.92,NNW,327,4.6,4.6,59,0.00,CLR,CLR,0.00,WeatherDisplay:10.36,2013-03-28 13:17:00,
2013-03-28 09:22:00,41.1,27.9,29.92,NW,307,3.5,3.5,59,0.00,CLR,CLR,0.00,WeatherDisplay:10.36,2013-03-28 13:22:00,
2013-03-28 09:27:00,41.3,27.6,29.92,NW,324,3.5,3.5,58,0.00,CLR,CLR,0.00,WeatherDisplay:10.36,2013-03-28 13:27:00,
2013-03-28 09:32:00,41.6,27.5,29.92,West,274,6.0,6.0,57,0.00,CLR,CLR,0.00,WeatherDisplay:10.36,2013-03-28 13:32:00,
2013-03-28 09:38:00,41.8,28.1,29.92,NW,317,3.5,3.5,58,0.00,CLR,CLR,0.00,WeatherDisplay:10.36,2013-03-28 13:38:00,
2013-03-28 09:43:00,41.9,27.8,29.92,NW,326,3.5,3.5,57,0.00,CLR,CLR,0.00,WeatherDisplay:10.36,2013-03-28 13:43:00,
2013-03-28 09:48:00,42.2,28.0,29.92,WNW,293,2.3,2.6,57,0.00,CLR,CLR,0.00,WeatherDisplay:10.36,2013-03-28 13:48:00,
2013-03-28 09:53:00,42.5,28.3,29.92,WSW,245,2.0,2.0,57,0.00,CLR,CLR,0.00,WeatherDisplay:10.36,2013-03-28 13:53:00,
2013-03-28 09:58:00,42.9,28.3,29.92,WSW,252,3.5,3.5,56,0.00,CLR,CLR,0.00,WeatherDisplay:10.36,2013-03-28 13:58:00,
2013-03-28 10:03:00,43.2,28.1,29.92,NW,323,3.5,3.5,55,0.00,CLR,CLR,0.00,WeatherDisplay:10.36,2013-03-28 14:03:00,
2013-03-28 10:08:00,43.5,27.9,29.92,NW,316,6.0,6.0,54,0.00,CLR,CLR,0.00,WeatherDisplay:10.36,2013-03-28 14:08:00,
2013-03-28 10:13:00,43.6,28.0,29.92,West,264,2.3,2.3,54,0.00,CLR,CLR,0.00,WeatherDisplay:10.36,2013-03-28 14:13:00,
2013-03-28 10:19:00,43.5,27.9,29.92,NW,308,1.2,1.2,54,0.00,CLR,CLR,0.00,WeatherDisplay:10.36,2013-03-28 14:19:00,
2013-03-28 10:24:00,43.5,27.9,29.93,NW,307,0.0,0.0,54,0.00,CLR,CLR,0.00,WeatherDisplay:10.36,2013-03-28 14:24:00,
2013-03-28 10:29:00,44.1,27.6,29.92,NW,320,3.5,3.5,52,0.00,CLR,CLR,0.00,WeatherDisplay:10.36,2013-03-28 14:29:00,
2013-03-28 10:34:00,44.8,27.8,29.93,WNW,300,4.6,0.0,51,0.00,CLR,CLR,0.00,WeatherDisplay:10.36,2013-03-28 14:34:00,
2013-03-28 10:40:00,45.4,27.3,29.93,NW,321,3.5,3.5,49,0.00,CLR,CLR,0.00,WeatherDisplay:10.36,2013-03-28 14:40:00,
2013-03-28 10:45:00,45.4,27.8,29.93,WNW,283,2.3,2.3,50,0.00,CLR,CLR,0.00,WeatherDisplay:10.36,2013-03-28 14:45:00,
2013-03-28 10:50:00,45.2,26.7,29.93,WNW,295,3.5,3.5,48,0.00,CLR,CLR,0.00,WeatherDisplay:10.36,2013-03-28 14:50:00,
2013-03-28 10:55:00,45.1,27.6,29.93,NW,314,2.0,4.0,50,0.00,CLR,CLR,0.00,WeatherDisplay:10.36,2013-03-28 14:55:00,
2013-03-28 11:00:00,45.0,27.4,29.93,NNW,331,0.0,5.0,50,0.00,CLR,CLR,0.00,WeatherDisplay:10.36,2013-03-28 15:00:00,
2013-03-28 11:05:00,45.2,27.6,29.93,NW,323,1.0,3.0,50,0.00,CLR,CLR,0.00,WeatherDisplay:10.36,2013-03-28 15:05:00,
2013-03-28 11:10:00,45.4,26.8,29.93,NW,316,2.0,5.0,48,0.00,CLR,CLR,0.00,WeatherDisplay:10.36,2013-03-28 15:10:00,
2013-03-28 11:15:00,45.7,27.1,29.93,NW,322,6.9,6.9,48,0.00,CLR,CLR,0.00,WeatherDisplay:10.36,2013-03-28 15:15:00,
2013-03-28 11:20:00,45.7,26.1,29.93,NNW,328,2.3,2.3,46,0.00,CLR,CLR,0.00,WeatherDisplay:10.36,2013-03-28 15:20:00,
2013-03-28 11:25:00,45.8,26.7,29.93,North,358,3.5,3.5,47,0.00,CLR,CLR,0.00,WeatherDisplay:10.36,2013-03-28 15:25:00,
2013-03-28 11:30:00,46.4,26.2,29.93,NW,314,4.0,4.0,45,0.00,CLR,CLR,0.00,WeatherDisplay:10.36,2013-03-28 15:30:00,
2013-03-28 11:36:00,46.5,26.8,29.93,NNW,338,3.5,3.5,46,0.00,CLR,CLR,0.00,WeatherDisplay:10.36,2013-03-28 15:36:00,
2013-03-28 11:42:00,46.7,27.5,29.93,NNW,328,3.5,3.5,47,0.00,CLR,CLR,0.00,WeatherDisplay:10.36,2013-03-28 15:42:00,
2013-03-28 11:47:00,47.0,27.8,29.93,NNW,347,3.5,3.5,47,0.00,CLR,CLR,0.00,WeatherDisplay:10.36,2013-03-28 15:47:00,
2013-03-28 11:52:00,47.1,26.8,29.93,NNW,347,4.0,4.0,45,0.00,CLR,CLR,0.00,WeatherDisplay:10.36,2013-03-28 15:52:00,
2013-03-28 11:57:00,47.4,26.6,29.93,NNW,336,3.5,3.5,44,0.00,CLR,CLR,0.00,WeatherDisplay:10.36,2013-03-28 15:57:00,
2013-03-28 12:02:00,47.3,27.0,29.93,NNW,330,4.6,4.6,45,0.00,CLR,CLR,0.00,WeatherDisplay:10.36,2013-03-28 16:02:00,
2013-03-28 12:07:00,47.0,26.7,29.93,NW,311,3.5,3.5,45,0.00,CLR,CLR,0.00,WeatherDisplay:10.36,2013-03-28 16:07:00,
2013-03-28 12:12:00,47.0,26.2,29.93,NW,326,3.5,3.5,44,0.00,CLR,CLR,0.00,WeatherDisplay:10.36,2013-03-28 16:12:00,
2013-03-28 12:17:00,47.0,26.7,29.92,NW,308,3.5,3.5,45,0.00,CLR,CLR,0.00,WeatherDisplay:10.36,2013-03-28 16:17:00,
2013-03-28 12:22:00,46.8,27.1,29.92,NW,304,2.3,2.3,46,0.00,CLR,CLR,0.00,WeatherDisplay:10.36,2013-03-28 16:22:00,
2013-03-28 12:28:00,47.1,26.8,29.92,West,277,3.5,0.0,45,0.00,CLR,CLR,0.00,WeatherDisplay:10.36,2013-03-28 16:28:00,
2013-03-28 12:33:00,47.3,27.0,29.92,NW,319,3.5,0.0,45,0.00,CLR,CLR,0.00,WeatherDisplay:10.36,2013-03-28 16:33:00,
2013-03-28 12:38:00,47.6,26.7,29.93,NW,324,3.5,3.5,44,0.00,CLR,CLR,0.00,WeatherDisplay:10.36,2013-03-28 16:38:00,
2013-03-28 12:43:00,47.4,27.1,29.93,North,0,3.5,3.5,45,0.00,CLR,CLR,0.00,WeatherDisplay:10.36,2013-03-28 16:43:00,
2013-03-28 12:48:00,47.3,27.0,29.92,NW,322,4.6,4.6,45,0.00,CLR,CLR,0.00,WeatherDisplay:10.36,2013-03-28 16:48:00,
2013-03-28 12:53:00,47.3,27.5,29.93,NW,323,6.9,6.9,46,0.00,CLR,CLR,0.00,WeatherDisplay:10.36,2013-03-28 16:53:00,
2013-03-28 12:58:00,47.9,27.0,29.92,NW,316,3.5,3.5,44,0.00,CLR,CLR,0.00,WeatherDisplay:10.36,2013-03-28 16:58:00,
2013-03-28 13:03:00,48.5,28.1,29.92,NW,323,3.5,3.5,45,0.00,CLR,CLR,0.00,WeatherDisplay:10.36,2013-03-28 17:03:00,
2013-03-28 13:08:00,48.2,28.4,29.93,NW,316,3.5,3.5,46,0.00,CLR,CLR,0.00,WeatherDisplay:10.36,2013-03-28 17:08:00,
2013-03-28 13:13:00,47.4,28.2,29.93,NW,319,3.5,3.5,47,0.00,CLR,CLR,0.00,WeatherDisplay:10.36,2013-03-28 17:13:00,
2013-03-28 13:18:00,47.3,28.1,29.93,WNW,293,2.3,2.3,47,0.00,CLR,CLR,0.00,WeatherDisplay:10.36,2013-03-28 17:18:00,
2013-03-28 13:23:00,48.2,27.8,29.92,WSW,256,2.3,2.3,45,0.00,CLR,CLR,0.00,WeatherDisplay:10.36,2013-03-28 17:23:00,
2013-03-28 13:28:00,49.1,28.7,29.92,NW,319,4.6,4.6,45,0.00,CLR,CLR,0.00,WeatherDisplay:10.36,2013-03-28 17:28:00,
2013-03-28 13:33:00,49.9,28.3,29.92,NW,316,3.5,3.5,43,0.00,CLR,CLR,0.00,WeatherDisplay:10.36,2013-03-28 17:33:00,
2013-03-28 13:38:00,50.5,28.2,29.92,NW,306,3.5,3.5,42,0.00,CLR,CLR,0.00,WeatherDisplay:10.36,2013-03-28 17:38:00,
2013-03-28 13:43:00,50.8,27.3,29.92,NW,309,3.5,0.0,40,0.00,CLR,CLR,0.00,WeatherDisplay:10.36,2013-03-28 17:43:00,
2013-03-28 13:49:00,51.1,27.6,29.92,NW,312,3.5,3.5,40,0.00,CLR,CLR,0.00,WeatherDisplay:10.36,2013-03-28 17:49:00,
2013-03-28 13:54:00,50.5,27.7,29.92,NW,316,3.5,3.5,41,0.00,CLR,CLR,0.00,WeatherDisplay:10.36,2013-03-28 17:54:00,
2013-03-28 13:59:00,49.6,28.0,29.92,NNW,330,4.6,4.6,43,0.00,CLR,CLR,0.00,WeatherDisplay:10.36,2013-03-28 17:59:00,
2013-03-28 14:04:00,49.2,28.7,29.92,NNW,333,3.5,3.5,45,0.00,CLR,CLR,0.00,WeatherDisplay:10.36,2013-03-28 18:04:00,
2013-03-28 14:09:00,49.8,29.3,29.92,NW,319,6.0,6.0,45,0.00,CLR,CLR,0.00,WeatherDisplay:10.36,2013-03-28 18:09:00,
2013-03-28 14:14:00,49.9,28.3,29.92,NW,316,7.0,7.0,43,0.00,CLR,CLR,0.00,WeatherDisplay:10.36,2013-03-28 18:14:00,
2013-03-28 14:19:00,49.4,28.4,29.92,North,358,3.5,3.5,44,0.00,CLR,CLR,0.00,WeatherDisplay:10.36,2013-03-28 18:19:00,
2013-03-28 14:25:00,48.8,27.8,29.92,North,349,3.5,3.5,44,0.00,CLR,CLR,0.00,WeatherDisplay:10.36,2013-03-28 18:25:00,
2013-03-28 14:30:00,48.5,27.6,29.92,NW,307,0.0,4.0,44,0.00,CLR,CLR,0.00,WeatherDisplay:10.36,2013-03-28 18:30:00,
2013-03-28 14:35:00,48.3,28.5,29.92,NW,311,2.3,2.3,46,0.00,CLR,CLR,0.00,WeatherDisplay:10.36,2013-03-28 18:35:00,
2013-03-28 14:40:00,48.9,28.5,29.92,NW,319,4.6,4.6,45,0.00,CLR,CLR,0.00,WeatherDisplay:10.36,2013-03-28 18:40:00,
2013-03-28 14:45:00,49.5,30.6,29.92,NW,325,5.8,5.8,48,0.00,CLR,CLR,0.00,WeatherDisplay:10.36,2013-03-28 18:45:00,
2013-03-28 14:50:00,49.8,30.4,29.92,NNW,330,6.9,6.9,47,0.00,CLR,CLR,0.00,WeatherDisplay:10.36,2013-03-28 18:50:00,
2013-03-28 14:56:00,49.6,29.6,29.92,WNW,295,3.5,3.5,46,0.00,CLR,CLR,0.00,WeatherDisplay:10.36,2013-03-28 18:56:00,
2013-03-28 15:01:00,49.6,29.1,29.92,WNW,290,4.0,4.0,45,0.00,CLR,CLR,0.00,WeatherDisplay:10.36,2013-03-28 19:01:00,
2013-03-28 15:06:00,49.1,29.2,29.92,NW,308,2.3,2.3,46,0.00,CLR,CLR,0.00,WeatherDisplay:10.36,2013-03-28 19:06:00,
2013-03-28 15:11:00,49.2,30.3,29.92,WNW,302,5.0,5.0,48,0.00,CLR,CLR,0.00,WeatherDisplay:10.36,2013-03-28 19:11:00,
2013-03-28 15:16:00,50.4,28.7,29.92,WNW,286,3.5,3.5,43,0.00,CLR,CLR,0.00,WeatherDisplay:10.36,2013-03-28 19:16:00,
2013-03-28 15:21:00,50.7,29.0,29.92,NW,312,9.2,9.2,43,0.00,CLR,CLR,0.00,WeatherDisplay:10.36,2013-03-28 19:21:00,
2013-03-28 15:27:00,49.6,30.7,29.92,NNW,328,3.5,3.5,48,0.00,CLR,CLR,0.00,WeatherDisplay:10.36,2013-03-28 19:27:00,
2013-03-28 15:32:00,48.5,31.2,29.92,NNW,331,2.0,2.0,51,0.00,CLR,CLR,0.00,WeatherDisplay:10.36,2013-03-28 19:32:00,
2013-03-28 15:37:00,47.9,30.6,29.92,NNW,329,4.6,4.6,51,0.00,CLR,CLR,0.00,WeatherDisplay:10.36,2013-03-28 19:37:00,
2013-03-28 15:42:00,47.7,30.0,29.92,NW,325,1.2,1.2,50,0.00,CLR,CLR,0.00,WeatherDisplay:10.36,2013-03-28 19:42:00,
2013-03-28 15:47:00,48.0,29.7,29.92,NW,325,1.2,1.2,49,0.00,CLR,CLR,0.00,WeatherDisplay:10.36,2013-03-28 19:47:00,
2013-03-28 15:52:00,48.5,28.6,29.92,NNW,328,2.0,2.0,46,0.00,CLR,CLR,0.00,WeatherDisplay:10.36,2013-03-28 19:52:00,
2013-03-28 15:57:00,48.8,28.9,29.92,NW,315,3.5,3.5,46,0.00,CLR,CLR,0.00,WeatherDisplay:10.36,2013-03-28 19:57:00,
2013-03-28 16:02:00,48.8,28.9,29.92,NW,326,3.5,3.5,46,0.00,CLR,CLR,0.00,WeatherDisplay:10.36,2013-03-28 20:02:00,
2013-03-28 16:07:00,48.5,28.6,29.92,WNW,299,6.9,6.9,46,0.00,CLR,CLR,0.00,WeatherDisplay:10.36,2013-03-28 20:07:00,
2013-03-28 16:12:00,47.9,28.6,29.93,NW,326,9.2,9.2,47,0.00,CLR,CLR,0.00,WeatherDisplay:10.36,2013-03-28 20:12:00,
2013-03-28 16:17:00,47.6,28.9,29.92,NW,326,3.0,3.0,48,0.00,CLR,CLR,0.00,WeatherDisplay:10.36,2013-03-28 20:17:00,
2013-03-28 16:22:00,47.6,28.3,29.93,NW,326,3.5,3.5,47,0.00,CLR,CLR,0.00,WeatherDisplay:10.36,2013-03-28 20:22:00,
2013-03-28 16:27:00,47.6,27.8,29.93,WNW,295,3.5,3.5,46,0.00,CLR,CLR,0.00,WeatherDisplay:10.36,2013-03-28 20:27:00,
2013-03-28 16:32:00,47.6,28.3,29.93,NNW,327,2.0,2.0,47,0.00,CLR,CLR,0.00,WeatherDisplay:10.36,2013-03-28 20:32:00,
2013-03-28 16:37:00,47.9,27.6,29.93,West,266,3.5,3.5,45,0.00,CLR,CLR,0.00,WeatherDisplay:10.36,2013-03-28 20:37:00,
2013-03-28 16:42:00,47.9,28.1,29.93,SW,219,3.5,3.5,46,0.00,CLR,CLR,0.00,WeatherDisplay:10.36,2013-03-28 20:42:00,
2013-03-28 16:47:00,48.0,28.2,29.93,NW,319,2.3,2.3,46,0.00,CLR,CLR,0.00,WeatherDisplay:10.36,2013-03-28 20:47:00,
2013-03-28 16:52:00,48.3,27.9,29.93,West,260,2.3,2.3,45,0.00,CLR,CLR,0.00,WeatherDisplay:10.36,2013-03-28 20:52:00,
2013-03-28 16:57:00,48.6,27.1,29.93,NNW,330,3.5,3.5,43,0.00,CLR,CLR,0.00,WeatherDisplay:10.36,2013-03-28 20:57:00,
2013-03-28 17:02:00,48.8,27.3,29.93,NW,316,3.5,3.5,43,0.00,CLR,CLR,0.00,WeatherDisplay:10.36,2013-03-28 21:02:00,
2013-03-28 17:08:00,48.8,27.8,29.94,NNW,341,2.3,2.3,44,0.00,CLR,CLR,0.00,WeatherDisplay:10.36,2013-03-28 21:08:00,
2013-03-28 17:13:00,48.8,27.3,29.94,NW,326,2.0,2.0,43,0.00,CLR,CLR,0.00,WeatherDisplay:10.36,2013-03-28 21:13:00,
2013-03-28 17:18:00,48.6,27.1,29.94,NW,326,2.3,2.3,43,0.00,CLR,CLR,0.00,WeatherDisplay:10.36,2013-03-28 21:18:00,
2013-03-28 17:23:00,48.3,27.4,29.94,NW,326,2.3,2.3,44,0.00,CLR,CLR,0.00,WeatherDisplay:10.36,2013-03-28 21:23:00,
2013-03-28 17:28:00,48.2,27.8,29.94,NW,326,2.3,2.3,45,0.00,CLR,CLR,0.00,WeatherDisplay:10.36,2013-03-28 21:28:00,
2013-03-28 17:33:00,48.2,27.8,29.94,NNW,330,2.3,2.3,45,0.00,CLR,CLR,0.00,WeatherDisplay:10.36,2013-03-28 21:33:00,
2013-03-28 17:38:00,48.0,27.6,29.94,NW,309,3.5,3.5,45,0.00,CLR,CLR,0.00,WeatherDisplay:10.36,2013-03-28 21:38:00,
2013-03-28 17:43:00,47.9,27.6,29.94,WNW,292,6.9,6.9,45,0.00,CLR,CLR,0.00,WeatherDisplay:10.36,2013-03-28 21:43:00,
2013-03-28 17:49:00,47.7,27.4,29.95,NNW,341,9.2,9.2,45,0.00,CLR,CLR,0.00,WeatherDisplay:10.36,2013-03-28 21:49:00,
2013-03-28 17:54:00,47.4,27.6,29.95,NW,317,3.5,3.5,46,0.00,CLR,CLR,0.00,WeatherDisplay:10.36,2013-03-28 21:54:00,
2013-03-28 17:59:00,47.4,27.6,29.95,NW,314,2.3,2.3,46,0.00,CLR,CLR,0.00,WeatherDisplay:10.36,2013-03-28 21:59:00,
2013-03-28 18:04:00,47.3,27.5,29.95,WNW,291,3.0,3.0,46,0.00,CLR,CLR,0.00,WeatherDisplay:10.36,2013-03-28 22:04:00,
2013-03-28 18:09:00,47.3,27.5,29.95,NW,309,3.5,3.5,46,0.00,CLR,CLR,0.00,WeatherDisplay:10.36,2013-03-28 22:09:00,
2013-03-28 18:15:00,47.1,27.4,29.95,NW,309,1.2,1.2,46,0.00,CLR,CLR,0.00,WeatherDisplay:10.36,2013-03-28 22:15:00,
2013-03-28 18:20:00,47.1,27.4,29.96,NW,320,3.5,3.5,46,0.00,CLR,CLR,0.00,WeatherDisplay:10.36,2013-03-28 22:20:00,
2013-03-28 18:25:00,47.1,27.4,29.96,NW,320,1.2,1.2,46,0.00,CLR,CLR,0.00,WeatherDisplay:10.36,2013-03-28 22:25:00,
2013-03-28 18:30:00,47.0,27.3,29.96,WNW,290,3.5,3.5,46,0.00,CLR,CLR,0.00,WeatherDisplay:10.36,2013-03-28 22:30:00,
2013-03-28 18:35:00,47.0,27.3,29.96,WNW,290,5.0,5.0,46,0.00,CLR,CLR,0.00,WeatherDisplay:10.36,2013-03-28 22:35:00,
2013-03-28 18:40:00,46.8,27.1,29.97,WNW,287,3.5,3.5,46,0.00,CLR,CLR,0.00,WeatherDisplay:10.36,2013-03-28 22:40:00,
2013-03-28 18:45:00,46.8,27.1,29.97,WNW,295,2.3,2.3,46,0.00,CLR,CLR,0.00,WeatherDisplay:10.36,2013-03-28 22:45:00,
2013-03-28 18:50:00,46.8,27.1,29.97,NW,321,3.5,3.5,46,0.00,CLR,CLR,0.00,WeatherDisplay:10.36,2013-03-28 22:50:00,
2013-03-28 18:55:00,46.7,27.0,29.97,NNW,330,2.3,2.3,46,0.00,CLR,CLR,0.00,WeatherDisplay:10.36,2013-03-28 22:55:00,
2013-03-28 19:00:00,46.7,27.0,29.97,NW,304,2.0,7.0,46,0.00,CLR,CLR,0.00,WeatherDisplay:10.36,2013-03-28 23:00:00,
2013-03-28 19:05:00,46.5,26.8,29.98,WNW,300,5.0,12.0,46,0.00,CLR,CLR,0.00,WeatherDisplay:10.36,2013-03-28 23:05:00,
2013-03-28 19:10:00,46.5,27.3,29.98,NW,316,1.0,4.0,47,0.00,CLR,CLR,0.00,WeatherDisplay:10.36,2013-03-28 23:10:00,
2013-03-28 19:15:00,46.4,27.2,29.98,NW,313,2.0,6.0,47,0.00,CLR,CLR,0.00,WeatherDisplay:10.36,2013-03-28 23:15:00,
2013-03-28 19:20:00,46.2,27.1,29.98,NW,308,2.0,7.0,47,0.00,CLR,CLR,0.00,WeatherDisplay:10.36,2013-03-28 23:20:00,
2013-03-28 19:25:00,46.1,27.5,29.98,NW,317,0.0,6.0,48,0.00,CLR,CLR,0.00,WeatherDisplay:10.36,2013-03-28 23:25:00,
2013-03-28 19:30:00,46.1,27.5,29.99,NW,319,0.0,3.0,48,0.00,CLR,CLR,0.00,WeatherDisplay:10.36,2013-03-28 23:30:00,
2013-03-28 19:35:00,46.0,27.4,29.99,NW,308,0.0,4.0,48,0.00,CLR,CLR,0.00,WeatherDisplay:10.36,2013-03-28 23:35:00,
2013-03-28 19:40:00,46.0,27.4,29.99,WNW,290,3.5,3.5,48,0.00,CLR,CLR,0.00,WeatherDisplay:10.36,2013-03-28 23:40:00,
2013-03-28 19:45:00,45.8,27.7,29.99,NW,308,0.0,4.0,49,0.00,CLR,CLR,0.00,WeatherDisplay:10.36,2013-03-28 23:45:00,
2013-03-28 19:50:00,45.8,27.7,29.99,WNW,285,3.5,3.5,49,0.00,CLR,CLR,0.00,WeatherDisplay:10.36,2013-03-28 23:50:00,
2013-03-28 19:55:00,45.7,27.6,29.99,NW,313,3.5,3.5,49,0.00,CLR,CLR,0.00,WeatherDisplay:10.36,2013-03-28 23:55:00,
2013-03-28 20:00:00,45.7,27.6,29.99,NW,310,1.0,3.0,49,0.00,CLR,CLR,0.00,WeatherDisplay:10.36,2013-03-29 00:00:00,
2013-03-28 20:05:00,45.7,28.1,30.00,WNW,302,2.3,2.3,50,0.00,CLR,CLR,0.00,WeatherDisplay:10.36,2013-03-29 00:05:00,
2013-03-28 20:10:00,45.7,28.1,30.00,NW,304,1.2,0.0,50,0.00,CLR,CLR,0.00,WeatherDisplay:10.36,2013-03-29 00:10:00,
2013-03-28 20:15:00,45.5,27.9,30.00,NW,304,0.0,2.0,50,0.00,CLR,CLR,0.00,WeatherDisplay:10.36,2013-03-29 00:15:00,
2013-03-28 20:20:00,45.5,27.9,30.00,NW,305,1.0,3.0,50,0.00,CLR,CLR,0.00,WeatherDisplay:10.36,2013-03-29 00:20:00,
2013-03-28 20:25:00,45.4,27.8,30.00,NW,307,2.3,2.3,50,0.00,CLR,CLR,0.00,WeatherDisplay:10.36,2013-03-29 00:25:00,
2013-03-28 20:30:00,45.4,28.3,30.00,WNW,302,2.3,2.3,51,0.00,CLR,CLR,0.00,WeatherDisplay:10.36,2013-03-29 00:30:00,
2013-03-28 20:36:00,45.2,28.1,30.00,WSW,240,3.5,3.5,51,0.00,CLR,CLR,0.00,WeatherDisplay:10.36,2013-03-29 00:36:00,
2013-03-28 20:42:00,45.2,28.1,30.00,West,278,3.5,3.5,51,0.00,CLR,CLR,0.00,WeatherDisplay:10.36,2013-03-29 00:42:00,
2013-03-28 20:47:00,45.2,28.1,30.01,NW,319,1.2,1.2,51,0.00,CLR,CLR,0.00,WeatherDisplay:10.36,2013-03-29 00:47:00,
2013-03-28 20:52:00,45.1,28.0,30.01,SW,228,2.0,2.0,51,0.00,CLR,CLR,0.00,WeatherDisplay:10.36,2013-03-29 00:52:00,
2013-03-28 20:57:00,45.1,28.0,30.01,NW,305,3.5,3.5,51,0.00,CLR,CLR,0.00,WeatherDisplay:10.36,2013-03-29 00:57:00,
2013-03-28 21:02:00,44.9,27.8,30.01,NW,313,3.5,3.5,51,0.00,CLR,CLR,0.00,WeatherDisplay:10.36,2013-03-29 01:02:00,
2013-03-28 21:08:00,44.9,27.8,30.02,NW,313,1.2,1.2,51,0.00,CLR,CLR,0.00,WeatherDisplay:10.36,2013-03-29 01:08:00,
2013-03-28 21:13:00,44.9,28.3,30.02,NW,313,1.2,0.0,52,0.00,CLR,CLR,0.00,WeatherDisplay:10.36,2013-03-29 01:13:00,
2013-03-28 21:18:00,44.9,28.3,30.02,NNW,330,4.6,4.6,52,0.00,CLR,CLR,0.00,WeatherDisplay:10.36,2013-03-29 01:18:00,
2013-03-28 21:23:00,44.9,28.3,30.02,NNW,329,1.2,1.2,52,0.00,CLR,CLR,0.00,WeatherDisplay:10.36,2013-03-29 01:23:00,
2013-03-28 21:28:00,44.8,28.2,30.02,NNW,329,3.5,3.5,52,0.00,CLR,CLR,0.00,WeatherDisplay:10.36,2013-03-29 01:28:00,
2013-03-28 21:34:00,44.8,28.2,30.02,SSW,202,3.5,3.5,52,0.00,CLR,CLR,0.00,WeatherDisplay:10.36,2013-03-29 01:34:00,
2013-03-28 21:39:00,44.6,28.0,30.02,NW,318,3.5,3.5,52,0.00,CLR,CLR,0.00,WeatherDisplay:10.36,2013-03-29 01:39:00,
2013-03-28 21:44:00,44.5,28.4,30.02,NW,318,2.3,0.0,53,0.00,CLR,CLR,0.00,WeatherDisplay:10.36,2013-03-29 01:44:00,
2013-03-28 21:49:00,44.2,28.1,30.03,NW,317,2.3,2.3,53,0.00,CLR,CLR,0.00,WeatherDisplay:10.36,2013-03-29 01:49:00,
2013-03-28 21:55:00,44.1,28.0,30.03,NW,317,0.0,2.0,53,0.00,CLR,CLR,0.00,WeatherDisplay:10.36,2013-03-29 01:55:00,
2013-03-28 22:00:00,43.9,28.3,30.03,NW,317,0.0,2.0,54,0.00,CLR,CLR,0.00,WeatherDisplay:10.36,2013-03-29 02:00:00,
2013-03-28 22:05:00,43.6,28.0,30.03,NW,317,0.0,1.0,54,0.00,CLR,CLR,0.00,WeatherDisplay:10.36,2013-03-29 02:05:00,
2013-03-28 22:10:00,43.5,27.9,30.02,West,269,0.0,3.0,54,0.00,CLR,CLR,0.00,WeatherDisplay:10.36,2013-03-29 02:10:00,
2013-03-28 22:15:00,43.3,28.2,30.02,WSW,239,0.0,0.0,55,0.00,CLR,CLR,0.00,WeatherDisplay:10.36,2013-03-29 02:15:00,
2013-03-28 22:20:00,43.1,28.0,30.03,WSW,239,0.0,0.0,55,0.00,CLR,CLR,0.00,WeatherDisplay:10.36,2013-03-29 02:20:00,
2013-03-28 22:25:00,42.9,27.8,30.03,WSW,243,1.2,1.2,55,0.00,CLR,CLR,0.00,WeatherDisplay:10.36,2013-03-29 02:25:00,
2013-03-28 22:31:00,42.9,27.8,30.03,WSW,243,0.0,0.0,55,0.00,CLR,CLR,0.00,WeatherDisplay:10.36,2013-03-29 02:31:00,
2013-03-28 22:36:00,42.8,28.2,30.03,WSW,243,1.2,1.2,56,0.00,CLR,CLR,0.00,WeatherDisplay:10.36,2013-03-29 02:36:00,
2013-03-28 22:41:00,42.8,28.2,30.03,NW,323,0.0,0.0,56,0.00,CLR,CLR,0.00,WeatherDisplay:10.36,2013-03-29 02:41:00,
2013-03-28 22:46:00,42.6,28.0,30.03,NW,323,0.0,0.0,56,0.00,CLR,CLR,0.00,WeatherDisplay:10.36,2013-03-29 02:46:00,
2013-03-28 22:51:00,42.3,28.1,30.03,NW,323,0.0,0.0,57,0.00,CLR,CLR,0.00,WeatherDisplay:10.36,2013-03-29 02:51:00,
2013-03-28 22:56:00,42.3,28.1,30.03,NW,323,1.2,0.0,57,0.00,CLR,CLR,0.00,WeatherDisplay:10.36,2013-03-29 02:56:00,
2013-03-28 23:01:00,42.3,28.1,30.03,NW,323,0.0,0.0,57,0.00,CLR,CLR,0.00,WeatherDisplay:10.36,2013-03-29 03:01:00,
2013-03-28 23:07:00,42.3,28.1,30.03,WSW,255,0.0,0.0,57,0.00,CLR,CLR,0.00,WeatherDisplay:10.36,2013-03-29 03:07:00,
2013-03-28 23:12:00,42.3,28.1,30.03,WSW,255,0.0,0.0,57,0.00,CLR,CLR,0.00,WeatherDisplay:10.36,2013-03-29 03:12:00,
2013-03-28 23:17:00,42.2,28.0,30.02,South,174,0.0,0.0,57,0.00,CLR,CLR,0.00,WeatherDisplay:10.36,2013-03-29 03:17:00,
2013-03-28 23:22:00,42.1,27.9,30.02,South,174,0.0,0.0,57,0.00,CLR,CLR,0.00,WeatherDisplay:10.36,2013-03-29 03:22:00,
2013-03-28 23:27:00,42.1,27.9,30.02,NNW,347,2.3,2.3,57,0.00,CLR,CLR,0.00,WeatherDisplay:10.36,2013-03-29 03:27:00,
2013-03-28 23:32:00,42.1,27.9,30.02,NNW,347,1.2,1.2,57,0.00,CLR,CLR,0.00,WeatherDisplay:10.36,2013-03-29 03:32:00,
2013-03-28 23:37:00,42.2,28.0,30.02,North,1,1.2,0.0,57,0.00,CLR,CLR,0.00,WeatherDisplay:10.36,2013-03-29 03:37:00,
2013-03-28 23:43:00,42.3,28.1,30.03,North,358,2.3,2.3,57,0.00,CLR,CLR,0.00,WeatherDisplay:10.36,2013-03-29 03:43:00,
2013-03-28 23:48:00,42.2,28.0,30.03,North,358,0.0,0.0,57,0.00,CLR,CLR,0.00,WeatherDisplay:10.36,2013-03-29 03:48:00,
2013-03-28 23:53:00,41.9,27.8,30.03,North,358,1.2,1.2,57,0.00,CLR,CLR,0.00,WeatherDisplay:10.36,2013-03-29 03:53:00,
2013-03-28 23:58:00,41.8,28.1,30.03,North,358,1.0,1.0,58,0.00,CLR,CLR,0.00,WeatherDisplay:10.36,2013-03-29 03:58:00,